CYBR

Brandon Municipal Airport

Brandon, Manitoba, Canada
Issued Wind Visibility Ceiling Temperature Dew Point Humidity Barometer
Sep-23
01:00 UTC
010°
6 KTS
12 miles Overcast
4,500' AGL
C
48° F
C
46° F
94% 29.98" Hg
1016.8 hPa
VFR
Sep-23
00:00 UTC
330°
5 KTS
12 miles Overcast
4,300' AGL
C
48° F
C
48° F
100% 29.98" Hg
1016.8 hPa
VFR
Sep-22
23:00 UTC
360°
7 KTS
15 miles Broken
4,300' AGL
C
48° F
C
46° F
94% 29.97" Hg
1016.5 hPa
VFR
Sep-22
22:52 UTC
030°
9 KTS
Gust 15 KTS
15 miles Broken
4,300' AGL
C
48° F
C
46° F
94% 29.96" Hg
1016 hPa
VFR
Sep-22
22:35 UTC
020°
10 KTS
Gust 16 KTS
15 miles Broken
4,400' AGL
C
48° F
C
46° F
94% 29.94" Hg
1015.4 hPa
VFR
Sep-22
22:00 UTC
030°
10 KTS
12 miles Broken
4,200' AGL
10° C
50° F
C
46° F
88% 29.94" Hg
1015.2 hPa
VFR
Sep-22
21:22 UTC
050°
7 KTS
Gust 19 KTS
12 miles Overcast
9,000' AGL
10° C
50° F
C
48° F
94% 29.94" Hg
1015.3 hPa
VFR
Sep-22
21:00 UTC
040°
20 KTS
12 miles Broken
9,100' AGL
10° C
50° F
C
46° F
88% 29.88" Hg
1013.3 hPa
VFR
Sep-22
20:51 UTC
040°
17 KTS
12 miles Overcast
12,000' AGL
10° C
50° F
C
48° F
94% 29.89" Hg
1013.5 hPa
VFR
Sep-22
20:00 UTC
020°
13 KTS
12 miles Overcast
9,000' AGL
10° C
50° F
C
46° F
88% 29.93" Hg
1015 hPa
VFR
Sep-22
19:00 UTC
050°
11 KTS
Gust 17 KTS
12 miles Overcast
8,800' AGL
10° C
50° F
C
46° F
88% 29.92" Hg
1014.7 hPa
VFR
Sep-22
18:09 UTC
030°
9 KTS
Gust 16 KTS
12 miles Overcast
6,600' AGL
11° C
52° F
C
45° F
77% 29.95" Hg
1015.6 hPa
VFR
Sep-22
17:51 UTC
040°
14 KTS
15 miles Overcast
10,000' AGL
12° C
54° F
C
43° F
67% 29.93" Hg
1015 hPa
VFR
Sep-22
17:00 UTC
040°
14 KTS
15 miles Broken
14,000' AGL
13° C
55° F
C
43° F
63% 29.93" Hg
1014.8 hPa
VFR
Sep-22
16:00 UTC
040°
10 KTS
15 miles Broken
23,000' AGL
12° C
54° F
C
39° F
58% 29.96" Hg
1015.8 hPa
VFR
Sep-22
15:00 UTC
030°
7 KTS
15 miles   11° C
52° F
C
41° F
67% 29.96" Hg
1015.8 hPa
VFR
Sep-22
14:00 UTC
030°
3 KTS
15 miles   C
46° F
C
41° F
82% 29.94" Hg
1015.2 hPa
VFR
Sep-22
13:00 UTC
040°
5 KTS
15 miles Broken
23,000' AGL
C
41° F
C
37° F
87% 29.92" Hg
1014.7 hPa
VFR
Sep-22
12:00 UTC
280°
3 KTS
15 miles Broken
22,000' AGL
C
41° F
C
37° F
87% 29.96" Hg
1015.8 hPa
VFR
Sep-22
11:00 UTC
340°
4 KTS
15 miles Broken
15,000' AGL
C
45° F
C
39° F
81% 29.93" Hg
1014.6 hPa
VFR
Sep-22
10:00 UTC
350°
11 KTS
15 miles Broken
14,000' AGL
C
48° F
C
41° F
76% 29.91" Hg
1014 hPa
VFR
Sep-22
09:00 UTC
010°
8 KTS
15 miles Broken
24,000' AGL
C
46° F
C
41° F
82% 29.89" Hg
1013.5 hPa
VFR
Sep-22
08:00 UTC
300°
7 KTS
15 miles   C
45° F
C
41° F
87% 29.92" Hg
1014.6 hPa
VFR
Sep-22
07:00 UTC
330°
8 KTS
15 miles   C
46° F
C
43° F
87% 29.86" Hg
1012.6 hPa
VFR
Sep-22
06:00 UTC
340°
5 KTS
15 miles Broken
24,000' AGL
C
46° F
C
43° F
87% 29.85" Hg
1012.2 hPa
VFR
Sep-22
05:00 UTC
280°
6 KTS
15 miles Broken
24,000' AGL
C
48° F
C
46° F
94% 29.86" Hg
1012.5 hPa
VFR
Sep-22
04:00 UTC
290°
6 KTS
15 miles Broken
16,000' AGL
C
48° F
C
46° F
94% 29.85" Hg
1012 hPa
VFR
Sep-22
03:00 UTC
280°
2 KTS
15 miles Broken
20,000' AGL
C
48° F
C
46° F
94% 29.83" Hg
1011.5 hPa
VFR